Location: Asheville, NC
(35.6000°N, 82.5500°W)
Time: 03:41:48
(UTC-04:00)

Vanguard 2 - Pass Details

Date: 07 December 2017
Orbit: 554 x 2939 km, 32.9° (Epoch: 24 June)

Event Time Altitude Azimuth Distance (km) Brightness Sun altitude
Rises 20:42:29 0° 269° (W) 2,733 11.2 -41.0°
Enters shadow 20:43:47 - 267° (W) 2,189 10.6 -41.3°
Reaches altitude 10° 20:44:41 10° 265° (W) 1,818 - -41.5°
Maximum altitude 20:48:31 55° 187° (S) 704 - -42.2°
Drops below altitude 10° 20:53:09 10° 109° (ESE) 2,178 - -43.2°
Sets 20:56:00 0° 105° (ESE) 3,350 - -43.8°
